ASIASAT 7

Last updated on Fri Dec 19 2025 00:02:50 GMT+0000 (Coordinated Universal Time)

1 37933U 11069A 25352.68397321 .00000000 00000+0 00000+0 0 9996 2 37933 0.0174 8.2626 0001182 223.8020 207.2042 1.00271347 43045
UTC large
Height (km)
Speed (km/s)
/
Latitude / Longitude
Inclination (degrees)
Orbital Period (minutes)
Azimuth
Elevation
Range (km)
Doppler Factor

Next 0 passes for location: London (51.5072 / 0.1276)

Sorry there are no passes over London.